Clinton, NC

6:39 PM EST on January 23, 2017 (GMT -0500)
Sampson County

Weather History for KCTZ - February, 2013

Change the Weather History Date:

Thursday, February 21, 2013

  Actual Average (KFAY) Record (KFAY)
Temperature  
Mean Temperature 41 °F -  
Max Temperature 55 °F 58 °F 80 °F (1991)
Min Temperature 27 °F 33 °F 16 °F (1958)
Degree Days  
Heating Degree Days 24    
Moisture  
Dew Point 23 °F    
Average Humidity 49    
Maximum Humidity 83    
Minimum Humidity 27    
Precipitation  
Precipitation 0.00 in - - ()
Sea Level Pressure  
Sea Level Pressure 30.18 in    
Wind  
Wind Speed 3 mph (North)    
Max Wind Speed 7 mph    
Max Gust Speed -    
Visibility 10 miles    
Events      
Averages and records for this station are not official NWS values.
T = Trace of Precipitation, MM = Missing Value Source: NWS Daily Summary

Daily Weather History Graph

Daily Weather History Graph

Search for Another Location

Airport or City:

Trip Planner

Search our weather history database for the weather conditions in past years. The results will help you decide how hot, cold, wet, or windy it might be!

Date:

Astronomy

Feb. 21, 2013 Rise Set
Actual Time 6:52 AM EST 6:02 PM EST
Civil Twilight 6:26 AM EST 6:27 PM EST
Nautical Twilight 5:57 AM EST 6:57 PM EST
Astronomical Twilight 5:27 AM EST 7:26 PM EST
Moon 2:21 PM EST (2/21) 3:49 AM EST (2/21)
Length of Visible Light 12h 01m
Length of Day
11h 09m
Waxing Gibbous, 83% of the Moon is Illuminated
Feb 21
Waxing Gibbous
Feb 25
Full
Mar 4
Last Quarter
Mar 11
New
Mar 19
First Quarter

Hourly Weather History & Observations

Time (EST) Temp. Windchill Dew Point Humidity Pressure Visibility Wind Dir Wind Speed Gust Speed Precip Events Conditions
12:15 AM 39.2 °F 35.0 °F 23.7 °F 54% 30.13 in 10.0 mi NNE 5.8 mph - N/A   Clear
12:35 AM 38.3 °F 33.9 °F 22.8 °F 54% 30.13 in 10.0 mi NNE 5.8 mph - N/A   Clear
12:55 AM 37.8 °F 35.3 °F 21.4 °F 52% 30.13 in 10.0 mi North 3.5 mph - N/A   Clear
1:15 AM 37.2 °F - 21.0 °F 52% 30.13 in 10.0 mi Calm Calm - N/A   Clear
1:35 AM 35.8 °F - 21.7 °F 57% 30.13 in 10.0 mi Calm Calm - N/A   Clear
1:55 AM 35.6 °F 32.8 °F 22.6 °F 59% 30.14 in 10.0 mi North 3.5 mph - N/A   Clear
2:15 AM 34.5 °F - 20.3 °F 56% 30.14 in 10.0 mi Calm Calm - N/A   Clear
2:35 AM 32.5 °F - 25.9 °F 76% 30.14 in 10.0 mi Calm Calm - N/A   Clear
2:55 AM 31.8 °F - 24.1 °F 73% 30.15 in 10.0 mi Calm Calm - N/A   Clear
3:15 AM 30.6 °F - 23.0 °F 74% 30.15 in 10.0 mi Calm Calm - N/A   Clear
3:35 AM 30.7 °F - 23.5 °F 75% 30.16 in 10.0 mi Calm Calm - N/A   Clear
3:55 AM 30.2 °F - 23.7 °F 77% 30.16 in 10.0 mi Calm Calm - N/A   Clear
4:15 AM 29.3 °F - 23.0 °F 77% 30.16 in 10.0 mi Calm Calm - N/A   Clear
4:35 AM 29.5 °F - 23.4 °F 78% 30.17 in 10.0 mi Calm Calm - N/A   Clear
4:55 AM 29.3 °F - 23.9 °F 80% 30.18 in 10.0 mi Calm Calm - N/A   Clear
5:15 AM 29.1 °F - 24.1 °F 81% 30.19 in 10.0 mi Calm Calm - N/A   Clear
5:35 AM 28.8 °F - 23.4 °F 80% 30.18 in 10.0 mi Calm Calm - N/A   Clear
5:55 AM 28.2 °F - 23.2 °F 81% 30.18 in 10.0 mi Calm Calm - N/A   Clear
6:15 AM 27.9 °F - 23.4 °F 83% 30.19 in 10.0 mi Calm Calm - N/A   Clear
7:35 AM 30.0 °F - 22.8 °F 75% 30.22 in 10.0 mi Calm Calm - N/A   Clear
7:55 AM 32.9 °F 29.8 °F 21.2 °F 62% 30.23 in 10.0 mi NNE 3.5 mph - N/A   Clear
8:15 AM 35.1 °F 30.1 °F 20.5 °F 55% 30.23 in 10.0 mi NNE 5.8 mph - N/A   Clear
8:35 AM 37.4 °F 32.8 °F 20.3 °F 50% 30.24 in 10.0 mi NNE 5.8 mph - N/A   Clear
8:55 AM 38.5 °F 34.1 °F 19.4 °F 46% 30.23 in 10.0 mi NE 5.8 mph - N/A   Clear
9:15 AM 39.6 °F 34.7 °F 19.4 °F 44% 30.23 in 10.0 mi NE 6.9 mph - N/A   Clear
9:35 AM 40.5 °F 35.8 °F 19.0 °F 42% 30.24 in 10.0 mi NNE 6.9 mph - N/A   Clear
9:55 AM 41.4 °F 37.6 °F 18.5 °F 40% 30.24 in 10.0 mi NNE 5.8 mph - N/A   Clear
10:15 AM 42.8 °F 39.3 °F 19.2 °F 39% 30.23 in 10.0 mi NNE 5.8 mph - N/A   Clear
10:35 AM 43.3 °F 39.2 °F 18.9 °F 38% 30.22 in 10.0 mi North 6.9 mph - N/A   Clear
10:55 AM 44.1 °F - 19.2 °F 37% 30.21 in 10.0 mi Calm Calm - N/A   Clear
11:15 AM 45.5 °F - 19.2 °F 35% 30.21 in 10.0 mi Calm Calm - N/A   Clear
11:35 AM 46.2 °F - 19.9 °F 35% 30.21 in 10.0 mi Calm Calm - N/A   Clear
11:55 AM 47.1 °F - 18.7 °F 32% 30.20 in 10.0 mi NNW 5.8 mph - N/A   Clear
12:15 PM 48.4 °F - 20.1 °F 33% 30.20 in 10.0 mi NNW 6.9 mph - N/A   Clear
12:35 PM 49.1 °F - 20.7 °F 33% 30.19 in 10.0 mi NNW 4.6 mph - N/A   Clear
12:55 PM 50.0 °F - 20.7 °F 32% 30.19 in 10.0 mi WNW 6.9 mph - N/A   Clear
1:15 PM 51.6 °F - 21.0 °F 30% 30.17 in 10.0 mi WNW 4.6 mph - N/A   Clear
1:35 PM 52.2 °F - 20.8 °F 29% 30.16 in 10.0 mi West 4.6 mph - N/A   Clear
1:55 PM 52.3 °F - 21.0 °F 29% 30.15 in 10.0 mi NW 4.6 mph - N/A   Clear
2:15 PM 53.2 °F - 20.8 °F 28% 30.15 in 10.0 mi West 5.8 mph - N/A   Clear
2:35 PM 53.8 °F - 21.7 °F 29% 30.14 in 10.0 mi NW 6.9 mph - N/A   Clear
2:55 PM 54.1 °F - 21.0 °F 27% 30.13 in 10.0 mi NNW 5.8 mph - N/A   Clear
3:15 PM 54.7 °F - 21.9 °F 28% 30.12 in 10.0 mi North 6.9 mph - N/A   Clear
3:35 PM 54.5 °F - 21.6 °F 28% 30.12 in 10.0 mi North 4.6 mph - N/A   Clear
3:55 PM 54.9 °F - 21.4 °F 27% 30.12 in 10.0 mi North 5.8 mph - N/A   Clear
4:15 PM 55.8 °F - 22.8 °F 28% 30.13 in 10.0 mi NW 3.5 mph - N/A   Clear
4:35 PM 54.9 °F - 21.2 °F 27% 30.13 in 10.0 mi West 3.5 mph - N/A   Clear
4:55 PM 55.2 °F - 21.9 °F 27% 30.13 in 10.0 mi WNW 4.6 mph - N/A   Clear
5:15 PM 54.7 °F - 22.1 °F 28% 30.14 in 10.0 mi Calm Calm - N/A   Clear
5:35 PM 53.6 °F - 23.4 °F 31% 30.15 in 10.0 mi Calm Calm - N/A   Clear
5:55 PM 50.7 °F - 25.9 °F 38% 30.15 in 10.0 mi Calm Calm - N/A   Clear
6:15 PM 47.1 °F - 26.4 °F 45% 30.14 in 10.0 mi Calm Calm - N/A   Clear
6:35 PM 45.1 °F - 27.5 °F 50% 30.16 in 10.0 mi Calm Calm - N/A   Clear
6:55 PM 44.8 °F - 28.2 °F 52% 30.17 in 10.0 mi Calm Calm - N/A   Clear
7:15 PM 44.2 °F - 30.0 °F 57% 30.18 in 10.0 mi Calm Calm - N/A   Clear
7:35 PM 43.7 °F - 31.3 °F 62% 30.19 in 10.0 mi Calm Calm - N/A   Clear
7:55 PM 42.8 °F - 31.5 °F 64% 30.20 in 10.0 mi Calm Calm - N/A   Clear
8:15 PM 43.9 °F 42.3 °F 31.8 °F 63% 30.20 in 10.0 mi NE 3.5 mph - N/A   Clear
8:35 PM 47.1 °F - 27.7 °F 47% 30.20 in 10.0 mi NE 4.6 mph - N/A   Clear
8:55 PM 48.2 °F - 24.3 °F 39% 30.20 in 10.0 mi NE 3.5 mph - N/A   Clear
9:15 PM 47.8 °F - 24.3 °F 40% 30.20 in 10.0 mi ENE 3.5 mph - N/A   Clear
9:35 PM 46.9 °F - 25.2 °F 43% 30.21 in 10.0 mi NE 5.8 mph - N/A   Clear
9:55 PM 46.6 °F - 25.3 °F 43% 30.20 in 10.0 mi NE 4.6 mph - N/A   Clear
10:15 PM 46.2 °F 45.0 °F 25.0 °F 43% 30.22 in 10.0 mi ENE 3.5 mph - N/A   Clear
10:35 PM 45.1 °F - 25.7 °F 47% 30.26 in 10.0 mi Calm Calm - N/A   Clear
10:55 PM 44.8 °F 43.3 °F 26.1 °F 48% 30.26 in 10.0 mi ENE 3.5 mph - N/A   Clear
11:15 PM 44.6 °F 42.2 °F 26.6 °F 49% 30.21 in 10.0 mi ENE 4.6 mph - N/A   Clear
11:35 PM 44.2 °F - 26.4 °F 50% 30.24 in 10.0 mi Calm Calm - N/A   Clear
11:55 PM 43.7 °F - 26.8 °F 51% 30.26 in 10.0 mi Calm Calm - N/A   Clear